Weather History for KMRJ - November, 2011

Change the Weather History Date:

Tuesday, November 1, 2011

  Actual Average (KLNR) Record (KLNR)
Temperature  
Mean Temperature 50 °F -  
Max Temperature 64 °F 50 °F 73 °F (2000)
Min Temperature 35 °F 33 °F 17 °F (2006)
Degree Days  
Heating Degree Days 16    
Moisture  
Dew Point 35 °F    
Average Humidity 66    
Maximum Humidity 87    
Minimum Humidity 42    
Precipitation  
Precipitation 0.00 in - - ()
Sea Level Pressure  
Sea Level Pressure 30.00 in    
Wind  
Wind Speed 10 mph (SSE)    
Max Wind Speed 16 mph    
Max Gust Speed 21 mph    
Visibility 10 miles    
Events      
Averages and records for this station are not official NWS values.
T = Trace of Precipitation, MM = Missing Value Source: NWS Daily Summary

Daily Weather History Graph

Daily Weather History Graph

Search for Another Location

Airport or City:

Trip Planner

Search our weather history database for the weather conditions in past years. The results will help you decide how hot, cold, wet, or windy it might be!

Date:

Astronomy

Nov. 01, 2011 Rise Set
Actual Time 7:34 AM CDT 5:53 PM CDT
Civil Twilight 7:05 AM CDT 6:22 PM CDT
Nautical Twilight 6:31 AM CDT 6:56 PM CDT
Astronomical Twilight 5:59 AM CDT 7:29 PM CDT
Moon 1:23 PM CDT (11/1) 11:35 PM CDT (11/1)
Length of Visible Light 11h 17m
Length of Day
10h 18m
Waxing Crescent, 40% of the Moon is Illuminated
Nov 1
Waxing Crescent
Nov 2
First Quarter
Nov 10
Full
Nov 18
Last Quarter
Nov 25
New

Hourly Weather History & Observations

Time (CDT) Temp. Windchill Dew Point Humidity Pressure Visibility Wind Dir Wind Speed Gust Speed Precip Events Conditions
12:15 AM 35.6 °F 29.2 °F 32.0 °F 87% 30.07 in 10.0 mi SSE 8.1 mph - N/A   Clear
12:35 AM 35.6 °F 29.9 °F 32.0 °F 87% 30.07 in 10.0 mi SSE 6.9 mph - N/A   Clear
12:55 AM 35.6 °F 29.9 °F 32.0 °F 87% 30.07 in 10.0 mi SSE 6.9 mph - N/A   Clear
1:15 AM 35.6 °F 29.9 °F 32.0 °F 87% 30.07 in 10.0 mi SSE 6.9 mph - N/A   Clear
1:35 AM 35.6 °F 29.9 °F 32.0 °F 87% 30.07 in 10.0 mi SE 6.9 mph - N/A   Clear
1:55 AM 37.4 °F 32.1 °F 32.0 °F 81% 30.07 in 10.0 mi SSE 6.9 mph - N/A   Clear
2:15 AM 37.4 °F 32.1 °F 32.0 °F 81% 30.06 in 10.0 mi SE 6.9 mph - N/A   Clear
2:35 AM 35.6 °F 29.9 °F 32.0 °F 87% 30.06 in 10.0 mi SE 6.9 mph - N/A   Clear
2:55 AM 35.6 °F 29.2 °F 32.0 °F 87% 30.06 in 10.0 mi SE 8.1 mph - N/A   Clear
3:15 AM 35.6 °F 28.6 °F 32.0 °F 87% 30.05 in 10.0 mi SSE 9.2 mph - N/A   Clear
3:35 AM 37.4 °F 30.8 °F 32.0 °F 81% 30.05 in 10.0 mi SSE 9.2 mph - N/A   Clear
3:55 AM 37.4 °F 31.4 °F 32.0 °F 81% 30.05 in 10.0 mi SSE 8.1 mph - N/A   Clear
4:15 AM 37.4 °F 31.4 °F 32.0 °F 81% 30.05 in 10.0 mi SSE 8.1 mph - N/A   Clear
4:35 AM 35.6 °F 28.6 °F 32.0 °F 87% 30.04 in 10.0 mi SSE 9.2 mph - N/A   Clear
4:55 AM 37.4 °F 30.8 °F 32.0 °F 81% 30.04 in 10.0 mi SSE 9.2 mph - N/A   Clear
5:15 AM 37.4 °F 30.8 °F 32.0 °F 81% 30.04 in 10.0 mi SSE 9.2 mph - N/A   Clear
5:35 AM 37.4 °F 29.3 °F 32.0 °F 81% 30.04 in 10.0 mi SSE 12.7 mph - N/A   Clear
5:55 AM 37.4 °F 29.8 °F 32.0 °F 81% 30.04 in 10.0 mi SSE 11.5 mph - N/A   Clear
6:15 AM 37.4 °F 30.3 °F 32.0 °F 81% 30.03 in 10.0 mi SE 10.4 mph - N/A   Clear
6:35 AM 37.4 °F 30.3 °F 32.0 °F 81% 30.03 in 10.0 mi SE 10.4 mph - N/A   Clear
6:55 AM 37.4 °F 30.3 °F 32.0 °F 81% 30.02 in 10.0 mi SE 10.4 mph - N/A   Clear
7:15 AM 37.4 °F 30.3 °F 32.0 °F 81% 30.02 in 10.0 mi SE 10.4 mph - N/A   Clear
7:35 AM 37.4 °F 29.8 °F 32.0 °F 81% 30.01 in 10.0 mi SE 11.5 mph - N/A   Clear
8:15 AM 39.2 °F 32.0 °F 32.0 °F 75% 30.02 in 10.0 mi SE 11.5 mph - N/A   Clear
8:35 AM 39.2 °F 32.5 °F 32.0 °F 75% 30.03 in 10.0 mi SSE 10.4 mph - N/A   Clear
8:55 AM 41.0 °F 34.3 °F 32.0 °F 70% 30.02 in 10.0 mi SSE 11.5 mph - N/A   Clear
9:15 AM 42.8 °F 36.6 °F 32.0 °F 66% 30.02 in 10.0 mi SSE 11.5 mph - N/A   Clear
9:35 AM 42.8 °F 35.4 °F 32.0 °F 66% 30.01 in 10.0 mi SSE 15.0 mph - N/A   Clear
9:55 AM 44.6 °F 37.8 °F 33.8 °F 66% 30.01 in 10.0 mi SSE 15.0 mph - N/A   Clear
10:15 AM 44.6 °F 37.8 °F 33.8 °F 66% 30.00 in 10.0 mi SSE 15.0 mph - N/A   Clear
10:35 AM 48.2 °F - 35.6 °F 62% 30.01 in 10.0 mi SSE 10.4 mph - N/A   Clear
10:55 AM 50.0 °F - 35.6 °F 58% 30.00 in 10.0 mi SSE 11.5 mph 18.4 mph N/A   Clear
11:15 AM 51.8 °F - 35.6 °F 54% 30.00 in 10.0 mi South 12.7 mph 17.3 mph N/A   Clear
11:35 AM 51.8 °F - 35.6 °F 54% 29.99 in 10.0 mi South 13.8 mph - N/A   Clear
11:55 AM 53.6 °F - 35.6 °F 51% 29.99 in 10.0 mi South 13.8 mph - N/A   Clear
12:15 PM 55.4 °F - 37.4 °F 51% 29.98 in 10.0 mi South 15.0 mph 18.4 mph N/A   Clear
12:35 PM 55.4 °F - 37.4 °F 51% 29.97 in 10.0 mi South 15.0 mph - N/A   Clear
12:55 PM 59.0 °F - 37.4 °F 45% 29.96 in 10.0 mi South 11.5 mph - N/A   Clear
1:15 PM 60.8 °F - 39.2 °F 45% 29.95 in 10.0 mi South 13.8 mph - N/A   Clear
1:35 PM 60.8 °F - 39.2 °F 45% 29.94 in 10.0 mi South 13.8 mph 19.6 mph N/A   Clear
2:15 PM 62.6 °F - 39.2 °F 42% 29.93 in 10.0 mi South 11.5 mph - N/A   Clear
2:35 PM 62.6 °F - 39.2 °F 42% 29.93 in 10.0 mi South 11.5 mph 17.3 mph N/A   Clear
3:15 PM 64.4 °F - 41.0 °F 42% 29.91 in 10.0 mi South 16.1 mph 20.7 mph N/A   Clear
3:35 PM 64.4 °F - 41.0 °F 42% 29.92 in 10.0 mi South 12.7 mph 19.6 mph N/A   Clear
3:55 PM 64.4 °F - 41.0 °F 42% 29.91 in 10.0 mi South 13.8 mph 20.7 mph N/A   Clear
4:15 PM 64.4 °F - 41.0 °F 42% 29.92 in 10.0 mi South 11.5 mph - N/A   Clear
4:35 PM 64.4 °F - 41.0 °F 42% 29.91 in 10.0 mi South 9.2 mph 17.3 mph N/A   Clear
4:55 PM 64.4 °F - 41.0 °F 42% 29.91 in 10.0 mi South 10.4 mph - N/A   Clear
5:15 PM 64.4 °F - 41.0 °F 42% 29.90 in 10.0 mi SSE 9.2 mph - N/A   Clear
5:35 PM 62.6 °F - 42.8 °F 48% 29.90 in 10.0 mi SSE 10.4 mph - N/A   Clear
6:35 PM 60.8 °F - 42.8 °F 52% 29.91 in 10.0 mi SSE 8.1 mph - N/A   Clear
6:55 PM 60.8 °F - 42.8 °F 52% 29.92 in 10.0 mi SSE 8.1 mph - N/A   Clear
7:15 PM 60.8 °F - 42.8 °F 52% 29.93 in 10.0 mi SSE 8.1 mph - N/A   Clear
7:35 PM 59.0 °F - 42.8 °F 55% 29.94 in 10.0 mi South 5.8 mph - N/A   Clear
7:55 PM 59.0 °F - 42.8 °F 55% 29.93 in 10.0 mi SSE 6.9 mph - N/A   Clear
8:15 PM 57.2 °F - 42.8 °F 59% 29.94 in 10.0 mi SSE 8.1 mph - N/A   Clear
8:35 PM 57.2 °F - 42.8 °F 59% 29.94 in 10.0 mi SSE 8.1 mph - N/A   Clear
8:55 PM 55.4 °F - 42.8 °F 63% 29.93 in 10.0 mi SSE 6.9 mph - N/A   Scattered Clouds
9:15 PM 59.0 °F - 42.8 °F 55% 29.94 in 10.0 mi SSE 9.2 mph - N/A   Mostly Cloudy
9:35 PM 59.0 °F - 42.8 °F 55% 29.94 in 10.0 mi SSE 9.2 mph - N/A   Overcast
9:55 PM 59.0 °F - 42.8 °F 55% 29.94 in 10.0 mi SSE 10.4 mph - N/A   Overcast
10:15 PM 60.8 °F - 42.8 °F 52% 29.94 in 10.0 mi SSE 9.2 mph - N/A   Overcast
10:35 PM 60.8 °F - 41.0 °F 48% 29.94 in 10.0 mi South 10.4 mph - N/A   Overcast
10:55 PM 60.8 °F - 41.0 °F 48% 29.94 in 10.0 mi South 10.4 mph - N/A   Overcast
11:15 PM 60.8 °F - 39.2 °F 45% 29.94 in 10.0 mi SSE 9.2 mph - N/A   Overcast
11:35 PM 60.8 °F - 37.4 °F 42% 29.94 in 10.0 mi South 9.2 mph - N/A   Overcast